Location: Buchdorf
(48.7842°N, 10.8275°E)
Time: 07:22:29
(UTC+00:00)

X-37B - Visible Passes

Search period start: 06 March 2021 00:00
Search period end: 16 March 2021 00:00
Orbit: 383 x 391 km, 45.0° (Epoch: 27 February)

Date Brightness Start Highest point End Pass type
(mag) Time Alt. Az. Time Alt. Az. Time Alt. Az.
11 Mar 3.4 19:18:12 10° SSW 19:18:22 11° SSW 19:18:22 11° SSW visible
12 Mar 2.7 18:20:45 10° S 18:22:29 14° SSE 18:23:05 13° SE visible
13 Mar 1.9 18:57:32 10° SW 18:59:58 26° S 18:59:58 26° S visible
14 Mar 2.3 17:59:41 10° SSW 18:02:08 20° SSE 18:04:28 11° ESE visible
14 Mar 2.6 19:35:18 10° WSW 19:36:45 23° SW 19:36:45 23° SW visible
15 Mar 1.5 18:37:07 10° SW 18:40:04 35° SSE 18:41:10 26° SE visible
15 Mar 3.9 20:13:22 10° WSW 20:13:28 11° WSW 20:13:28 11° WSW visible
